owner,sensor,date,latitude,longitude,air_temperature,qcFlag 
TABS,ioos:station:wmo:42044:1,2003-01-01T00:09:00Z,26.1914,-97.0507,21.4,11144222 
TABS,ioos:station:wmo:42044:1,2003-01-01T00:39:00Z,26.1914,-97.0507,21.6,11144222 
TABS,ioos:station:wmo:42044:1,2003-01-01T01:09:00Z,26.1914,-97.0507,22.1,11144222 
TABS,ioos:station:wmo:42044:1,2003-01-01T01:39:00Z,26.1914,-97.0507,22.2,11144222 
TABS,ioos:station:wmo:42044:1,2003-01-01T02:09:00Z,26.1914,-97.0507,22.3,11144222 
TABS,ioos:station:wmo:42044:1,2003-01-01T02:39:00Z,26.1914,-97.0507,22.1,11144222 
TABS,ioos:station:wmo:42044:1,2003-01-01T03:09:00Z,26.1914,-97.0507,22.1,11144222 
TABS,ioos:station:wmo:42044:1,2003-01-01T03:39:00Z,26.1914,-97.0507,22.1,11144222 
TABS,ioos:station:wmo:42044:1,2003-01-01T04:09:00Z,26.1914,-97.0507,22.2,11144222 
TABS,ioos:station:wmo:42044:1,2003-01-01T04:39:00Z,26.1914,-97.0507,22.2,11144222 
TABS,ioos:station:wmo:42044:1,2003-01-01T05:09:00Z,26.1914,-97.0507,22.2,11144222 
TABS,ioos:station:wmo:42044:1,2003-01-01T05:39:00Z,26.1914,-97.0507,22.1,11144222 
TABS,ioos:station:wmo:42044:1,2003-01-01T06:09:00Z,26.1914,-97.0507,21.9,11144222 
TABS,ioos:station:wmo:42044:1,2003-01-01T06:39:00Z,26.1914,-97.0507,21.8,11144222 
TABS,ioos:station:wmo:42044:1,2003-01-01T07:09:00Z,26.1914,-97.0507,21.7,11144222 
TABS,ioos:station:wmo:42044:1,2003-01-01T07:39:00Z,26.1914,-97.0507,21.9,11144222 
TABS,ioos:station:wmo:42044:1,2003-01-01T08:09:00Z,26.1914,-97.0507,21.9,11144222 
TABS,ioos:station:wmo:42044:1,2003-01-01T08:39:00Z,26.1914,-97.0507,21.3,11144222 
TABS,ioos:station:wmo:42044:1,2003-01-01T09:09:00Z,26.1914,-97.0507,22.0,11144222 
TABS,ioos:station:wmo:42044:1,2003-01-01T09:39:00Z,26.1914,-97.0507,22.1,11144222 
TABS,ioos:station:wmo:42044:1,2003-01-01T10:09:00Z,26.1914,-97.0507,22.1,11144222 
TABS,ioos:station:wmo:42044:1,2003-01-01T10:39:00Z,26.1914,-97.0507,22.0,11144222 
TABS,ioos:station:wmo:42044:1,2003-01-01T11:09:00Z,26.1914,-97.0507,22.1,11144222 
TABS,ioos:station:wmo:42044:1,2003-01-01T11:39:00Z,26.1914,-97.0507,22.2,11144222 
TABS,ioos:station:wmo:42044:1,2003-01-01T12:09:00Z,26.1914,-97.0507,22.4,11144222 
TABS,ioos:station:wmo:42044:1,2003-01-01T12:39:00Z,26.1914,-97.0507,22.6,11144222 
TABS,ioos:station:wmo:42044:1,2003-01-01T13:09:00Z,26.1914,-97.0507,22.6,11144222 
TABS,ioos:station:wmo:42044:1,2003-01-01T13:39:00Z,26.1914,-97.0507,22.8,11144222 
TABS,ioos:station:wmo:42044:1,2003-01-01T14:09:00Z,26.1914,-97.0507,22.9,11144222 
TABS,ioos:station:wmo:42044:1,2003-01-01T14:39:00Z,26.1914,-97.0507,23.3,11144222 
TABS,ioos:station:wmo:42044:1,2003-01-01T15:09:00Z,26.1914,-97.0507,23.4,11144222 
TABS,ioos:station:wmo:42044:1,2003-01-01T15:39:00Z,26.1914,-97.0507,23.3,11144222 
TABS,ioos:station:wmo:42044:1,2003-01-01T16:09:00Z,26.1914,-97.0507,23.4,11144222 
TABS,ioos:station:wmo:42044:1,2003-01-01T16:39:00Z,26.1914,-97.0507,23.4,11144222 
TABS,ioos:station:wmo:42044:1,2003-01-01T17:09:00Z,26.1914,-97.0507,23.4,11144222 
TABS,ioos:station:wmo:42044:1,2003-01-01T17:39:00Z,26.1914,-97.0507,23.4,11144222 
TABS,ioos:station:wmo:42044:1,2003-01-01T18:09:00Z,26.1914,-97.0507,23.4,11144222 
TABS,ioos:station:wmo:42044:1,2003-01-01T18:39:00Z,26.1914,-97.0507,23.3,11144222 
TABS,ioos:station:wmo:42044:1,2003-01-01T19:09:00Z,26.1914,-97.0507,23.3,11144222 
TABS,ioos:station:wmo:42044:1,2003-01-01T19:39:00Z,26.1914,-97.0507,23.0,11144222 
TABS,ioos:station:wmo:42044:1,2003-01-01T20:09:00Z,26.1914,-97.0507,22.9,11144222 
TABS,ioos:station:wmo:42044:1,2003-01-01T20:39:00Z,26.1914,-97.0507,22.9,11144222 
TABS,ioos:station:wmo:42044:1,2003-01-01T21:09:00Z,26.1914,-97.0507,23.2,11144222 
TABS,ioos:station:wmo:42044:1,2003-01-01T21:39:00Z,26.1914,-97.0507,23.4,11144222 
TABS,ioos:station:wmo:42044:1,2003-01-01T22:09:00Z,26.1914,-97.0507,23.1,11144222 
TABS,ioos:station:wmo:42044:1,2003-01-01T22:39:00Z,26.1914,-97.0507,23.0,11144222 
TABS,ioos:station:wmo:42044:1,2003-01-01T23:09:00Z,26.1914,-97.0507,23.0,11144222 
TABS,ioos:station:wmo:42044:1,2003-01-01T23:39:00Z,26.1914,-97.0507,22.9,11144222 
TABS,ioos:station:wmo:42044:1,2003-01-02T00:09:00Z,26.1914,-97.0507,22.8,11144222 
TABS,ioos:station:wmo:42044:1,2003-01-02T00:39:00Z,26.1914,-97.0507,22.8,11144222 
TABS,ioos:station:wmo:42044:1,2003-01-02T01:09:00Z,26.1914,-97.0507,22.7,11144222 
TABS,ioos:station:wmo:42044:1,2003-01-02T01:39:00Z,26.1914,-97.0507,22.6,11144222 
TABS,ioos:station:wmo:42044:1,2003-01-02T02:09:00Z,26.1914,-97.0507,22.5,11144222 
TABS,ioos:station:wmo:42044:1,2003-01-02T02:39:00Z,26.1914,-97.0507,22.5,11144222 
TABS,ioos:station:wmo:42044:1,2003-01-02T03:09:00Z,26.1914,-97.0507,22.5,11144222 
TABS,ioos:station:wmo:42044:1,2003-01-02T03:39:00Z,26.1914,-97.0507,22.5,11144222 
TABS,ioos:station:wmo:42044:1,2003-01-02T04:09:00Z,26.1914,-97.0507,22.4,11144222 
TABS,ioos:station:wmo:42044:1,2003-01-02T04:39:00Z,26.1914,-97.0507,22.4,11144222 
TABS,ioos:station:wmo:42044:1,2003-01-02T05:09:00Z,26.1914,-97.0507,22.3,11144222 
TABS,ioos:station:wmo:42044:1,2003-01-02T05:39:00Z,26.1914,-97.0507,22.3,11144222 
TABS,ioos:station:wmo:42044:1,2003-01-02T06:09:00Z,26.1914,-97.0507,22.4,11144222 
TABS,ioos:station:wmo:42044:1,2003-01-02T06:39:00Z,26.1914,-97.0507,22.3,11144222 
TABS,ioos:station:wmo:42044:1,2003-01-02T07:09:00Z,26.1914,-97.0507,22.2,11144222 
TABS,ioos:station:wmo:42044:1,2003-01-02T07:39:00Z,26.1914,-97.0507,21.9,11144222 
TABS,ioos:station:wmo:42044:1,2003-01-02T08:09:00Z,26.1914,-97.0507,21.7,11144222 
TABS,ioos:station:wmo:42044:1,2003-01-02T08:39:00Z,26.1914,-97.0507,20.8,11144222 
TABS,ioos:station:wmo:42044:1,2003-01-02T09:09:00Z,26.1914,-97.0507,21.2,11144222 
TABS,ioos:station:wmo:42044:1,2003-01-02T09:39:00Z,26.1914,-97.0507,21.9,11144222 
TABS,ioos:station:wmo:42044:1,2003-01-02T10:09:00Z,26.1914,-97.0507,20.7,11144222 
TABS,ioos:station:wmo:42044:1,2003-01-02T10:39:00Z,26.1914,-97.0507,19.8,11144222 
TABS,ioos:station:wmo:42044:1,2003-01-02T11:09:00Z,26.1914,-97.0507,19.2,11144222 
TABS,ioos:station:wmo:42044:1,2003-01-02T11:39:00Z,26.1914,-97.0507,18.6,11144222 
TABS,ioos:station:wmo:42044:1,2003-01-02T12:09:00Z,26.1914,-97.0507,18.0,11144222 
TABS,ioos:station:wmo:42044:1,2003-01-02T12:39:00Z,26.1914,-97.0507,17.1,11144222 
TABS,ioos:station:wmo:42044:1,2003-01-02T13:09:00Z,26.1914,-97.0507,16.6,11144222 
TABS,ioos:station:wmo:42044:1,2003-01-02T13:39:00Z,26.1914,-97.0507,16.3,11144222 
TABS,ioos:station:wmo:42044:1,2003-01-02T14:09:00Z,26.1914,-97.0507,16.0,11144222 
TABS,ioos:station:wmo:42044:1,2003-01-02T14:39:00Z,26.1914,-97.0507,15.4,11144222 
TABS,ioos:station:wmo:42044:1,2003-01-02T15:09:00Z,26.1914,-97.0507,15.2,11144222 
TABS,ioos:station:wmo:42044:1,2003-01-02T15:39:00Z,26.1914,-97.0507,15.1,11144222 
TABS,ioos:station:wmo:42044:1,2003-01-02T16:09:00Z,26.1914,-97.0507,15.0,11144222 
TABS,ioos:station:wmo:42044:1,2003-01-02T16:39:00Z,26.1914,-97.0507,14.8,11144222 
TABS,ioos:station:wmo:42044:1,2003-01-02T17:09:00Z,26.1914,-97.0507,14.8,11144222 
TABS,ioos:station:wmo:42044:1,2003-01-02T17:39:00Z,26.1914,-97.0507,14.7,11144222 
TABS,ioos:station:wmo:42044:1,2003-01-02T18:09:00Z,26.1914,-97.0507,14.9,11144222 
TABS,ioos:station:wmo:42044:1,2003-01-02T18:39:00Z,26.1914,-97.0507,15.3,11144222 
TABS,ioos:station:wmo:42044:1,2003-01-02T19:09:00Z,26.1914,-97.0507,15.8,11144222 
TABS,ioos:station:wmo:42044:1,2003-01-02T19:39:00Z,26.1914,-97.0507,16.1,11144222 
TABS,ioos:station:wmo:42044:1,2003-01-02T20:09:00Z,26.1914,-97.0507,16.7,11144222 
TABS,ioos:station:wmo:42044:1,2003-01-02T20:39:00Z,26.1914,-97.0507,16.9,11144222 
TABS,ioos:station:wmo:42044:1,2003-01-02T21:09:00Z,26.1914,-97.0507,17.3,11144222 
TABS,ioos:station:wmo:42044:1,2003-01-02T21:39:00Z,26.1914,-97.0507,17.7,11144222 
TABS,ioos:station:wmo:42044:1,2003-01-02T22:09:00Z,26.1914,-97.0507,18.2,11144222 
TABS,ioos:station:wmo:42044:1,2003-01-02T22:39:00Z,26.1914,-97.0507,18.5,11144222 
TABS,ioos:station:wmo:42044:1,2003-01-02T23:09:00Z,26.1914,-97.0507,18.3,11144222 
TABS,ioos:station:wmo:42044:1,2003-01-02T23:39:00Z,26.1914,-97.0507,18.4,11144222 
TABS,ioos:station:wmo:42044:1,2003-01-03T00:09:00Z,26.1914,-97.0507,18.6,11144222 
TABS,ioos:station:wmo:42044:1,2003-01-03T00:39:00Z,26.1914,-97.0507,18.8,11144222 
TABS,ioos:station:wmo:42044:1,2003-01-03T01:09:00Z,26.1914,-97.0507,19.0,11144222 
TABS,ioos:station:wmo:42044:1,2003-01-03T01:39:00Z,26.1914,-97.0507,19.1,11144222 
TABS,ioos:station:wmo:42044:1,2003-01-03T02:09:00Z,26.1914,-97.0507,19.2,11144222 
TABS,ioos:station:wmo:42044:1,2003-01-03T02:39:00Z,26.1914,-97.0507,19.2,11144222 
TABS,ioos:station:wmo:42044:1,2003-01-03T03:09:00Z,26.1914,-97.0507,19.1,11144222 
TABS,ioos:station:wmo:42044:1,2003-01-03T03:39:00Z,26.1914,-97.0507,19.2,11144222 
TABS,ioos:station:wmo:42044:1,2003-01-03T04:09:00Z,26.1914,-97.0507,19.2,11144222 
TABS,ioos:station:wmo:42044:1,2003-01-03T04:39:00Z,26.1914,-97.0507,19.3,11144222 
TABS,ioos:station:wmo:42044:1,2003-01-03T05:09:00Z,26.1914,-97.0507,19.4,11144222 
TABS,ioos:station:wmo:42044:1,2003-01-03T05:39:00Z,26.1914,-97.0507,19.5,11144222 
TABS,ioos:station:wmo:42044:1,2003-01-03T06:09:00Z,26.1914,-97.0507,19.5,11144222 
TABS,ioos:station:wmo:42044:1,2003-01-03T06:39:00Z,26.1914,-97.0507,19.5,11144222 
TABS,ioos:station:wmo:42044:1,2003-01-03T07:09:00Z,26.1914,-97.0507,19.5,11144222 
TABS,ioos:station:wmo:42044:1,2003-01-03T07:39:00Z,26.1914,-97.0507,19.6,11144222 
TABS,ioos:station:wmo:42044:1,2003-01-03T08:09:00Z,26.1914,-97.0507,18.8,11144222 
TABS,ioos:station:wmo:42044:1,2003-01-03T08:39:00Z,26.1914,-97.0507,18.8,11144222 
TABS,ioos:station:wmo:42044:1,2003-01-03T09:09:00Z,26.1914,-97.0507,18.6,11144222 
TABS,ioos:station:wmo:42044:1,2003-01-03T09:39:00Z,26.1914,-97.0507,18.3,11144222 
TABS,ioos:station:wmo:42044:1,2003-01-03T10:09:00Z,26.1914,-97.0507,18.3,11144222 
TABS,ioos:station:wmo:42044:1,2003-01-03T10:39:00Z,26.1914,-97.0507,18.2,11144222 
TABS,ioos:station:wmo:42044:1,2003-01-03T11:09:00Z,26.1914,-97.0507,18.3,11144222 
TABS,ioos:station:wmo:42044:1,2003-01-03T11:39:00Z,26.1914,-97.0507,17.9,11144222 
TABS,ioos:station:wmo:42044:1,2003-01-03T12:09:00Z,26.1914,-97.0507,17.4,11144222 
TABS,ioos:station:wmo:42044:1,2003-01-03T12:39:00Z,26.1914,-97.0507,17.6,11144222 
TABS,ioos:station:wmo:42044:1,2003-01-03T13:09:00Z,26.1914,-97.0507,17.7,11144222 
TABS,ioos:station:wmo:42044:1,2003-01-03T13:39:00Z,26.1914,-97.0507,17.5,11144222 
TABS,ioos:station:wmo:42044:1,2003-01-03T14:09:00Z,26.1914,-97.0507,17.7,11144222 
TABS,ioos:station:wmo:42044:1,2003-01-03T14:39:00Z,26.1914,-97.0507,17.8,11144222 
TABS,ioos:station:wmo:42044:1,2003-01-03T15:09:00Z,26.1914,-97.0507,17.7,11144222 
TABS,ioos:station:wmo:42044:1,2003-01-03T15:39:00Z,26.1914,-97.0507,18.2,11144222 
TABS,ioos:station:wmo:42044:1,2003-01-03T16:09:00Z,26.1914,-97.0507,18.5,11144222 
TABS,ioos:station:wmo:42044:1,2003-01-03T16:39:00Z,26.1914,-97.0507,18.7,11144222 
TABS,ioos:station:wmo:42044:1,2003-01-03T17:09:00Z,26.1914,-97.0507,18.9,11144222 
TABS,ioos:station:wmo:42044:1,2003-01-03T17:39:00Z,26.1914,-97.0507,18.9,11144222 
TABS,ioos:station:wmo:42044:1,2003-01-03T18:09:00Z,26.1914,-97.0507,18.9,11144222 
TABS,ioos:station:wmo:42044:1,2003-01-03T18:39:00Z,26.1914,-97.0507,19.1,11144222 
TABS,ioos:station:wmo:42044:1,2003-01-03T19:09:00Z,26.1914,-97.0507,19.2,11144222 
TABS,ioos:station:wmo:42044:1,2003-01-03T19:39:00Z,26.1914,-97.0507,19.1,11144222 
TABS,ioos:station:wmo:42044:1,2003-01-03T20:09:00Z,26.1914,-97.0507,19.2,11144222 
TABS,ioos:station:wmo:42044:1,2003-01-03T20:39:00Z,26.1914,-97.0507,19.4,11144222 
TABS,ioos:station:wmo:42044:1,2003-01-03T21:09:00Z,26.1914,-97.0507,19.8,11144222 
TABS,ioos:station:wmo:42044:1,2003-01-03T21:39:00Z,26.1914,-97.0507,20.0,11144222 
TABS,ioos:station:wmo:42044:1,2003-01-03T22:09:00Z,26.1914,-97.0507,19.9,11144222 
TABS,ioos:station:wmo:42044:1,2003-01-03T22:39:00Z,26.1914,-97.0507,19.9,11144222 
TABS,ioos:station:wmo:42044:1,2003-01-03T23:09:00Z,26.1914,-97.0507,19.8,11144222 
TABS,ioos:station:wmo:42044:1,2003-01-03T23:39:00Z,26.1914,-97.0507,19.8,11144222 
TABS,ioos:station:wmo:42044:1,2003-01-04T00:09:00Z,26.1914,-97.0507,19.7,11144222 
TABS,ioos:station:wmo:42044:1,2003-01-04T00:39:00Z,26.1914,-97.0507,19.7,11144222 
TABS,ioos:station:wmo:42044:1,2003-01-04T01:09:00Z,26.1914,-97.0507,19.7,11144222 
TABS,ioos:station:wmo:42044:1,2003-01-04T01:39:00Z,26.1914,-97.0507,19.7,11144222 
TABS,ioos:station:wmo:42044:1,2003-01-04T02:09:00Z,26.1914,-97.0507,19.7,11144222 
TABS,ioos:station:wmo:42044:1,2003-01-04T02:39:00Z,26.1914,-97.0507,19.6,11144222 
TABS,ioos:station:wmo:42044:1,2003-01-04T03:09:00Z,26.1914,-97.0507,19.6,11144222 
TABS,ioos:station:wmo:42044:1,2003-01-04T03:39:00Z,26.1914,-97.0507,19.6,11144222 
TABS,ioos:station:wmo:42044:1,2003-01-04T04:09:00Z,26.1914,-97.0507,19.6,11144222 
TABS,ioos:station:wmo:42044:1,2003-01-04T04:39:00Z,26.1914,-97.0507,19.6,11144222 
TABS,ioos:station:wmo:42044:1,2003-01-04T05:09:00Z,26.1914,-97.0507,19.6,11144222 
TABS,ioos:station:wmo:42044:1,2003-01-04T05:39:00Z,26.1914,-97.0507,19.6,11144222 
TABS,ioos:station:wmo:42044:1,2003-01-04T06:09:00Z,26.1914,-97.0507,19.6,11144222 
TABS,ioos:station:wmo:42044:1,2003-01-04T06:39:00Z,26.1914,-97.0507,19.6,11144222 
TABS,ioos:station:wmo:42044:1,2003-01-04T07:09:00Z,26.1914,-97.0507,19.7,11144222 
TABS,ioos:station:wmo:42044:1,2003-01-04T07:39:00Z,26.1914,-97.0507,19.6,11144222 
TABS,ioos:station:wmo:42044:1,2003-01-04T08:09:00Z,26.1914,-97.0507,19.8,11144222 
TABS,ioos:station:wmo:42044:1,2003-01-04T08:39:00Z,26.1914,-97.0507,19.7,11144222 
TABS,ioos:station:wmo:42044:1,2003-01-04T09:09:00Z,26.1914,-97.0507,19.8,11144222 
TABS,ioos:station:wmo:42044:1,2003-01-04T09:39:00Z,26.1914,-97.0507,19.9,11144222 
TABS,ioos:station:wmo:42044:1,2003-01-04T10:09:00Z,26.1914,-97.0507,19.9,11144222 
TABS,ioos:station:wmo:42044:1,2003-01-04T10:39:00Z,26.1914,-97.0507,19.9,11144222 
TABS,ioos:station:wmo:42044:1,2003-01-04T11:09:00Z,26.1914,-97.0507,19.9,11144222 
TABS,ioos:station:wmo:42044:1,2003-01-04T11:39:00Z,26.1914,-97.0507,20.0,11144222 
TABS,ioos:station:wmo:42044:1,2003-01-04T12:09:00Z,26.1914,-97.0507,20.1,11144222 
TABS,ioos:station:wmo:42044:1,2003-01-04T12:39:00Z,26.1914,-97.0507,20.2,11144222 
TABS,ioos:station:wmo:42044:1,2003-01-04T13:09:00Z,26.1914,-97.0507,20.3,11144222 
TABS,ioos:station:wmo:42044:1,2003-01-04T13:39:00Z,26.1914,-97.0507,20.6,11144222 
TABS,ioos:station:wmo:42044:1,2003-01-04T14:09:00Z,26.1914,-97.0507,20.9,11144222 
TABS,ioos:station:wmo:42044:1,2003-01-04T14:39:00Z,26.1914,-97.0507,21.1,11144222 
TABS,ioos:station:wmo:42044:1,2003-01-04T15:09:00Z,26.1914,-97.0507,21.3,11144222 
TABS,ioos:station:wmo:42044:1,2003-01-04T15:39:00Z,26.1914,-97.0507,21.4,11144222 
TABS,ioos:station:wmo:42044:1,2003-01-04T16:09:00Z,26.1914,-97.0507,21.5,11144222 
TABS,ioos:station:wmo:42044:1,2003-01-04T16:39:00Z,26.1914,-97.0507,21.7,11144222 
TABS,ioos:station:wmo:42044:1,2003-01-04T17:09:00Z,26.1914,-97.0507,21.7,11144222 
TABS,ioos:station:wmo:42044:1,2003-01-04T17:39:00Z,26.1914,-97.0507,21.7,11144222 
TABS,ioos:station:wmo:42044:1,2003-01-04T18:09:00Z,26.1914,-97.0507,21.8,11144222 
TABS,ioos:station:wmo:42044:1,2003-01-04T18:39:00Z,26.1914,-97.0507,21.8,11144222 
TABS,ioos:station:wmo:42044:1,2003-01-04T19:09:00Z,26.1914,-97.0507,21.8,11144222 
TABS,ioos:station:wmo:42044:1,2003-01-04T19:39:00Z,26.1914,-97.0507,21.9,11144222 
TABS,ioos:station:wmo:42044:1,2003-01-04T20:09:00Z,26.1914,-97.0507,21.9,11144222 
TABS,ioos:station:wmo:42044:1,2003-01-04T20:39:00Z,26.1914,-97.0507,22.1,11144222 
TABS,ioos:station:wmo:42044:1,2003-01-04T21:09:00Z,26.1914,-97.0507,22.2,11144222 
TABS,ioos:station:wmo:42044:1,2003-01-04T21:39:00Z,26.1914,-97.0507,22.3,11144222 
TABS,ioos:station:wmo:42044:1,2003-01-04T22:09:00Z,26.1914,-97.0507,22.3,11144222 
TABS,ioos:station:wmo:42044:1,2003-01-04T22:39:00Z,26.1914,-97.0507,22.4,11144222 
TABS,ioos:station:wmo:42044:1,2003-01-04T23:09:00Z,26.1914,-97.0507,22.4,11144222 
TABS,ioos:station:wmo:42044:1,2003-01-04T23:39:00Z,26.1914,-97.0507,22.2,11144222 
TABS,ioos:station:wmo:42044:1,2003-01-05T00:09:00Z,26.1914,-97.0507,22.2,11144222 
TABS,ioos:station:wmo:42044:1,2003-01-05T00:39:00Z,26.1914,-97.0507,22.2,11144222 
TABS,ioos:station:wmo:42044:1,2003-01-05T01:09:00Z,26.1914,-97.0507,22.3,11144222 
TABS,ioos:station:wmo:42044:1,2003-01-05T01:39:00Z,26.1914,-97.0507,22.3,11144222 
TABS,ioos:station:wmo:42044:1,2003-01-05T02:09:00Z,26.1914,-97.0507,22.3,11144222 
TABS,ioos:station:wmo:42044:1,2003-01-05T02:39:00Z,26.1914,-97.0507,22.3,11144222 
TABS,ioos:station:wmo:42044:1,2003-01-05T03:09:00Z,26.1914,-97.0507,22.4,11144222 
TABS,ioos:station:wmo:42044:1,2003-01-05T03:39:00Z,26.1914,-97.0507,22.4,11144222 
TABS,ioos:station:wmo:42044:1,2003-01-05T04:09:00Z,26.1914,-97.0507,22.5,11144222 
TABS,ioos:station:wmo:42044:1,2003-01-05T04:39:00Z,26.1914,-97.0507,22.4,11144222 
TABS,ioos:station:wmo:42044:1,2003-01-05T05:09:00Z,26.1914,-97.0507,22.5,11144222 
TABS,ioos:station:wmo:42044:1,2003-01-05T05:39:00Z,26.1914,-97.0507,22.4,11144222 
TABS,ioos:station:wmo:42044:1,2003-01-05T06:09:00Z,26.1914,-97.0507,22.5,11144222 
TABS,ioos:station:wmo:42044:1,2003-01-05T06:39:00Z,26.1914,-97.0507,22.5,11144222 
TABS,ioos:station:wmo:42044:1,2003-01-05T07:09:00Z,26.1914,-97.0507,22.5,11144222 
TABS,ioos:station:wmo:42044:1,2003-01-05T07:39:00Z,26.1914,-97.0507,22.5,11144222 
TABS,ioos:station:wmo:42044:1,2003-01-05T08:09:00Z,26.1914,-97.0507,22.4,11144222 
TABS,ioos:station:wmo:42044:1,2003-01-05T08:39:00Z,26.1914,-97.0507,22.4,11144222 
TABS,ioos:station:wmo:42044:1,2003-01-05T09:09:00Z,26.1914,-97.0507,22.4,11144222 
TABS,ioos:station:wmo:42044:1,2003-01-05T09:39:00Z,26.1914,-97.0507,22.4,11144222 
TABS,ioos:station:wmo:42044:1,2003-01-05T10:09:00Z,26.1914,-97.0507,22.3,11144222 
TABS,ioos:station:wmo:42044:1,2003-01-05T10:39:00Z,26.1914,-97.0507,22.4,11144222 
TABS,ioos:station:wmo:42044:1,2003-01-05T11:09:00Z,26.1914,-97.0507,22.4,11144222 
TABS,ioos:station:wmo:42044:1,2003-01-05T11:39:00Z,26.1914,-97.0507,22.3,11144222 
TABS,ioos:station:wmo:42044:1,2003-01-05T12:09:00Z,26.1914,-97.0507,22.3,11144222 
TABS,ioos:station:wmo:42044:1,2003-01-05T12:39:00Z,26.1914,-97.0507,22.3,11144222 
TABS,ioos:station:wmo:42044:1,2003-01-05T13:09:00Z,26.1914,-97.0507,22.3,11144222 
TABS,ioos:station:wmo:42044:1,2003-01-05T13:39:00Z,26.1914,-97.0507,22.3,11144222 
TABS,ioos:station:wmo:42044:1,2003-01-05T14:09:00Z,26.1914,-97.0507,22.4,11144222 
TABS,ioos:station:wmo:42044:1,2003-01-05T14:39:00Z,26.1914,-97.0507,22.4,11144222 
TABS,ioos:station:wmo:42044:1,2003-01-05T15:09:00Z,26.1914,-97.0507,22.3,11144222 
TABS,ioos:station:wmo:42044:1,2003-01-05T15:39:00Z,26.1914,-97.0507,22.1,11144222 
TABS,ioos:station:wmo:42044:1,2003-01-05T16:09:00Z,26.1914,-97.0507,21.9,11144222 
TABS,ioos:station:wmo:42044:1,2003-01-05T16:39:00Z,26.1914,-97.0507,21.9,11144222 
TABS,ioos:station:wmo:42044:1,2003-01-05T17:09:00Z,26.1914,-97.0507,21.9,11144222 
TABS,ioos:station:wmo:42044:1,2003-01-05T17:39:00Z,26.1914,-97.0507,22.3,11144222 
TABS,ioos:station:wmo:42044:1,2003-01-05T18:09:00Z,26.1914,-97.0507,23.6,11144222 
TABS,ioos:station:wmo:42044:1,2003-01-05T18:39:00Z,26.1914,-97.0507,22.8,11144222 
TABS,ioos:station:wmo:42044:1,2003-01-05T19:09:00Z,26.1914,-97.0507,23.1,11144222 
TABS,ioos:station:wmo:42044:1,2003-01-05T19:39:00Z,26.1914,-97.0507,23.1,11144222 
TABS,ioos:station:wmo:42044:1,2003-01-05T20:09:00Z,26.1914,-97.0507,23.2,11144222 
TABS,ioos:station:wmo:42044:1,2003-01-05T20:39:00Z,26.1914,-97.0507,23.4,11144222 
TABS,ioos:station:wmo:42044:1,2003-01-05T21:09:00Z,26.1914,-97.0507,23.5,11144222 
TABS,ioos:station:wmo:42044:1,2003-01-05T21:39:00Z,26.1914,-97.0507,23.4,11144222 
TABS,ioos:station:wmo:42044:1,2003-01-05T22:09:00Z,26.1914,-97.0507,23.5,11144222 
TABS,ioos:station:wmo:42044:1,2003-01-05T22:39:00Z,26.1914,-97.0507,23.3,11144222 
TABS,ioos:station:wmo:42044:1,2003-01-05T23:09:00Z,26.1914,-97.0507,23.1,11144222 
TABS,ioos:station:wmo:42044:1,2003-01-05T23:39:00Z,26.1914,-97.0507,23.1,11144222 
TABS,ioos:station:wmo:42044:1,2003-01-06T00:09:00Z,26.1914,-97.0507,23.0,11144222 
TABS,ioos:station:wmo:42044:1,2003-01-06T00:39:00Z,26.1914,-97.0507,22.9,11144222 
TABS,ioos:station:wmo:42044:1,2003-01-06T01:09:00Z,26.1914,-97.0507,22.9,11144222 
TABS,ioos:station:wmo:42044:1,2003-01-06T01:39:00Z,26.1914,-97.0507,22.9,11144222 
TABS,ioos:station:wmo:42044:1,2003-01-06T02:09:00Z,26.1914,-97.0507,22.9,11144222 
TABS,ioos:station:wmo:42044:1,2003-01-06T02:39:00Z,26.1914,-97.0507,22.9,11144222 
TABS,ioos:station:wmo:42044:1,2003-01-06T03:09:00Z,26.1914,-97.0507,22.9,11144222 
TABS,ioos:station:wmo:42044:1,2003-01-06T03:39:00Z,26.1914,-97.0507,22.9,11144222 
TABS,ioos:station:wmo:42044:1,2003-01-06T04:09:00Z,26.1914,-97.0507,22.8,11144222 
TABS,ioos:station:wmo:42044:1,2003-01-06T04:39:00Z,26.1914,-97.0507,22.8,11144222 
TABS,ioos:station:wmo:42044:1,2003-01-06T05:09:00Z,26.1914,-97.0507,22.8,11144222 
TABS,ioos:station:wmo:42044:1,2003-01-06T05:39:00Z,26.1914,-97.0507,22.8,11144222 
TABS,ioos:station:wmo:42044:1,2003-01-06T06:09:00Z,26.1914,-97.0507,22.8,11144222 
TABS,ioos:station:wmo:42044:1,2003-01-06T06:39:00Z,26.1914,-97.0507,22.8,11144222 
TABS,ioos:station:wmo:42044:1,2003-01-06T07:09:00Z,26.1914,-97.0507,22.9,11144222 
TABS,ioos:station:wmo:42044:1,2003-01-06T07:39:00Z,26.1914,-97.0507,23.0,11144222 
TABS,ioos:station:wmo:42044:1,2003-01-06T08:09:00Z,26.1914,-97.0507,23.0,11144222 
TABS,ioos:station:wmo:42044:1,2003-01-06T08:39:00Z,26.1914,-97.0507,23.0,11144222 
TABS,ioos:station:wmo:42044:1,2003-01-06T09:09:00Z,26.1914,-97.0507,22.9,11144222 
TABS,ioos:station:wmo:42044:1,2003-01-06T09:39:00Z,26.1914,-97.0507,22.9,11144222 
TABS,ioos:station:wmo:42044:1,2003-01-06T10:09:00Z,26.1914,-97.0507,23.0,11144222 
TABS,ioos:station:wmo:42044:1,2003-01-06T10:39:00Z,26.1914,-97.0507,23.0,11144222 
TABS,ioos:station:wmo:42044:1,2003-01-06T11:09:00Z,26.1914,-97.0507,22.9,11144222 
TABS,ioos:station:wmo:42044:1,2003-01-06T11:39:00Z,26.1914,-97.0507,22.8,11144222 
TABS,ioos:station:wmo:42044:1,2003-01-06T12:09:00Z,26.1914,-97.0507,22.8,11144222 
TABS,ioos:station:wmo:42044:1,2003-01-06T12:39:00Z,26.1914,-97.0507,22.8,11144222 
TABS,ioos:station:wmo:42044:1,2003-01-06T13:09:00Z,26.1914,-97.0507,22.8,11144222 
TABS,ioos:station:wmo:42044:1,2003-01-06T13:39:00Z,26.1914,-97.0507,22.8,11144222 
TABS,ioos:station:wmo:42044:1,2003-01-06T14:09:00Z,26.1914,-97.0507,22.9,11144222 
TABS,ioos:station:wmo:42044:1,2003-01-06T14:39:00Z,26.1914,-97.0507,23.0,11144222 
TABS,ioos:station:wmo:42044:1,2003-01-06T15:09:00Z,26.1914,-97.0507,23.4,11144222 
TABS,ioos:station:wmo:42044:1,2003-01-06T15:39:00Z,26.1914,-97.0507,23.3,11144222 
TABS,ioos:station:wmo:42044:1,2003-01-06T16:09:00Z,26.1914,-97.0507,23.2,11144222 
TABS,ioos:station:wmo:42044:1,2003-01-06T16:39:00Z,26.1914,-97.0507,23.4,11144222 
TABS,ioos:station:wmo:42044:1,2003-01-06T17:09:00Z,26.1914,-97.0507,23.4,11144222 
TABS,ioos:station:wmo:42044:1,2003-01-06T17:39:00Z,26.1914,-97.0507,23.4,11144222 
TABS,ioos:station:wmo:42044:1,2003-01-06T18:09:00Z,26.1914,-97.0507,23.4,11144222 
TABS,ioos:station:wmo:42044:1,2003-01-06T18:39:00Z,26.1914,-97.0507,23.4,11144222 
TABS,ioos:station:wmo:42044:1,2003-01-06T19:09:00Z,26.1914,-97.0507,23.4,11144222 
TABS,ioos:station:wmo:42044:1,2003-01-06T19:39:00Z,26.1914,-97.0507,23.5,11144222 
TABS,ioos:station:wmo:42044:1,2003-01-06T20:09:00Z,26.1914,-97.0507,23.4,11144222 
TABS,ioos:station:wmo:42044:1,2003-01-06T20:39:00Z,26.1914,-97.0507,23.5,11144222 
TABS,ioos:station:wmo:42044:1,2003-01-06T21:09:00Z,26.1914,-97.0507,23.4,11144222 
TABS,ioos:station:wmo:42044:1,2003-01-06T21:39:00Z,26.1914,-97.0507,23.4,11144222 
TABS,ioos:station:wmo:42044:1,2003-01-06T22:09:00Z,26.1914,-97.0507,23.3,11144222 
TABS,ioos:station:wmo:42044:1,2003-01-06T22:39:00Z,26.1914,-97.0507,23.3,11144222 
TABS,ioos:station:wmo:42044:1,2003-01-06T23:09:00Z,26.1914,-97.0507,23.1,11144222 
TABS,ioos:station:wmo:42044:1,2003-01-06T23:39:00Z,26.1914,-97.0507,22.9,11144222 